Overview Statistics Trail Chart Weather Telemetry Raw packets
 

This is the latest recevied weather packets stored in our database for station/object HS2GJW-1. If no packets are shown the sender has not sent any weather packets the latest 10 day(s).

<< 2 3 4 5 6 7 8 >>
Time Temp. Humidity Pressure Rain* Wind** Luminosity Snow
1788576858 33.33° C 78% 1011 hPa - - 0 W/m² -
1788576234 33.33° C 78% 1011 hPa - - 0 W/m² -
1788575608 32.78° C 79% 1011 hPa - - 0 W/m² -
1788574983 32.78° C 83% 1011 hPa - - 0 W/m² -
1788574359 32.22° C 84% 1011 hPa - - 0 W/m² -
1788573733 32.22° C 86% 1011 hPa - - 0 W/m² -
1788573105 31.67° C 87% 1011 hPa - - 0 W/m² -
1788572480 31.67° C 88% 1011 hPa - - 0 W/m² -
1788571856 31.67° C 90% 1011 hPa - - 0 W/m² -
1788571230 31.67° C 90% 1011 hPa - - 0 W/m² -
1788570634 31.67° C 92% 1011 hPa - - 0 W/m² -
1788569975 31.11° C 97% 1011 hPa - - 0 W/m² -
1788569345 31.11° C 98% 1010 hPa - - 0 W/m² -
1788568716 30.56° C 99% 1010 hPa - - 0 W/m² -
1788568089 30.56° C 99% 1010 hPa - - 0 W/m² -
1788567462 30.56° C 99% 1010 hPa - - 0 W/m² -
1788566835 30.56° C 99% 1010 hPa - - 0 W/m² -
1788566211 30° C 99% 1010 hPa - - 0 W/m² -
1788565587 28.89° C 99% 1009 hPa - - 0 W/m² -
1788526579 32.78° C 80% 1009 hPa - - 0 W/m² -
1788525955 32.78° C 77% 1009 hPa - - 0 W/m² -
1788525331 32.78° C 77% 1008 hPa - - 0 W/m² -
1788524706 33.33° C 76% 1008 hPa - - 0 W/m² -
1788524080 33.33° C 79% 1008 hPa - - 0 W/m² -
1788523456 33.33° C 77% 1008 hPa - - 0 W/m² -

* Rain since midnight (hover to see other rain measurements)
** Current wind speed in m/s (hover to see current wind gust speed)